Location: ??????
(38.1303°N, 24.0039°E)
Time: 12:55:09
(UTC+00:00)

Meteor 2-16 Rocket - Pass Details

Date: 20 June 2021
Orbit: 941 x 957 km, 82.6° (Epoch: 02 August)

Event Time Altitude Azimuth Distance (km) Brightness Sun altitude
Exits shadow 01:37:05 15° 198° (SSW) 2,312 5.9 -13.8°
Maximum altitude 01:42:11 67° 279° (W) 1,030 4.5 -13.1°
Drops below altitude 10° 01:48:17 10° 2° (N) 2,682 7.5 -12.2°
Sets 01:50:49 0° 5° (N) 3,628 8.3 -11.9°
